date,time,water_lv
2023-11-01,00:00:00,-0.757
2023-11-01,00:10:00,-0.799
2023-11-01,00:20:00,-0.822
2023-11-01,00:30:00,-0.865
2023-11-01,00:40:00,-0.883
2023-11-01,00:50:00,-0.922
2023-11-01,01:00:00,-0.958
2023-11-01,01:10:00,-0.969
2023-11-01,01:20:00,-1
2023-11-01,01:30:00,-1.022
2023-11-01,01:40:00,-1.045
2023-11-01,01:50:00,-1.067
2023-11-01,02:00:00,-1.083
2023-11-01,02:10:00,-1.098
2023-11-01,02:20:00,-1.12
2023-11-01,02:30:00,-1.131
2023-11-01,02:40:00,-1.145
2023-11-01,02:50:00,-1.153
2023-11-01,03:00:00,-1.165
2023-11-01,03:10:00,-1.146
2023-11-01,03:20:00,-1.119
2023-11-01,03:30:00,-1.071
2023-11-01,03:40:00,-1.009
2023-11-01,03:50:00,-0.904
2023-11-01,04:00:00,-0.829
2023-11-01,04:10:00,-0.691
2023-11-01,04:20:00,-0.546
2023-11-01,04:30:00,-0.411
2023-11-01,04:40:00,-0.245
2023-11-01,04:50:00,-0.122
2023-11-01,05:00:00,0.01
2023-11-01,05:10:00,0.144
2023-11-01,05:20:00,0.265
2023-11-01,05:30:00,0.341
2023-11-01,05:40:00,0.438
2023-11-01,05:50:00,0.496
2023-11-01,06:00:00,0.596
2023-11-01,06:10:00,0.716
2023-11-01,06:20:00,0.801
2023-11-01,06:30:00,0.873
2023-11-01,06:40:00,0.936
2023-11-01,06:50:00,1.03
2023-11-01,07:00:00,1.123
2023-11-01,07:10:00,1.181
2023-11-01,07:20:00,1.257
2023-11-01,07:30:00,1.287
2023-11-01,07:40:00,1.326
2023-11-01,07:50:00,1.362
2023-11-01,08:00:00,1.414
2023-11-01,08:10:00,1.447
2023-11-01,08:20:00,1.467
2023-11-01,08:30:00,1.491
2023-11-01,08:40:00,1.494
2023-11-01,08:50:00,1.55
2023-11-01,09:00:00,1.535
2023-11-01,09:10:00,1.557
2023-11-01,09:20:00,1.513
2023-11-01,09:30:00,1.473
2023-11-01,09:40:00,1.435
2023-11-01,09:50:00,1.404
2023-11-01,10:00:00,1.405
2023-11-01,10:10:00,1.376
2023-11-01,10:20:00,1.338
2023-11-01,10:30:00,1.29
2023-11-01,10:40:00,1.273
2023-11-01,10:50:00,1.199
2023-11-01,11:00:00,1.131
2023-11-01,11:10:00,1.118
2023-11-01,11:20:00,1.057
2023-11-01,11:30:00,1.002
2023-11-01,11:40:00,0.941
2023-11-01,11:50:00,0.887
2023-11-01,12:00:00,0.838
2023-11-01,12:10:00,0.763
2023-11-01,12:20:00,0.745
2023-11-01,12:30:00,0.714
2023-11-01,12:40:00,0.684
2023-11-01,12:50:00,0.622
2023-11-01,13:00:00,0.581
2023-11-01,13:10:00,0.54
2023-11-01,13:20:00,0.498
2023-11-01,13:30:00,0.478
2023-11-01,13:40:00,0.437
2023-11-01,13:50:00,0.439
2023-11-01,14:00:00,0.444
2023-11-01,14:10:00,0.412
2023-11-01,14:20:00,0.41
2023-11-01,14:30:00,0.424
2023-11-01,14:40:00,0.428
2023-11-01,14:50:00,0.428
2023-11-01,15:00:00,0.451
2023-11-01,15:10:00,0.485
2023-11-01,15:20:00,0.511
2023-11-01,15:30:00,0.521
2023-11-01,15:40:00,0.565
2023-11-01,15:50:00,0.568
2023-11-01,16:00:00,0.594
2023-11-01,16:10:00,0.641
2023-11-01,16:20:00,0.663
2023-11-01,16:30:00,0.726
2023-11-01,16:40:00,0.776
2023-11-01,16:50:00,0.855
2023-11-01,17:00:00,0.912
2023-11-01,17:10:00,0.948
2023-11-01,17:20:00,0.96
2023-11-01,17:30:00,0.941
2023-11-01,17:40:00,0.964
2023-11-01,17:50:00,1.003
2023-11-01,18:00:00,1.035
2023-11-01,18:10:00,1.055
2023-11-01,18:20:00,1.109
2023-11-01,18:30:00,1.128
2023-11-01,18:40:00,1.164
2023-11-01,18:50:00,1.124
2023-11-01,19:00:00,1.073
2023-11-01,19:10:00,1.045
2023-11-01,19:20:00,1.018
2023-11-01,19:30:00,1.016
2023-11-01,19:40:00,0.968
2023-11-01,19:50:00,0.94
2023-11-01,20:00:00,0.907
2023-11-01,20:10:00,0.861
2023-11-01,20:20:00,0.805
2023-11-01,20:30:00,0.753
2023-11-01,20:40:00,0.681
2023-11-01,20:50:00,0.598
2023-11-01,21:00:00,0.551
2023-11-01,21:10:00,0.477
2023-11-01,21:20:00,0.408
2023-11-01,21:30:00,0.319
2023-11-01,21:40:00,0.254
2023-11-01,21:50:00,0.193
2023-11-01,22:00:00,0.101
2023-11-01,22:10:00,0.022
2023-11-01,22:20:00,-0.055
2023-11-01,22:30:00,-0.118
2023-11-01,22:40:00,-0.184
2023-11-01,22:50:00,-0.243
2023-11-01,23:00:00,-0.313
2023-11-01,23:10:00,-0.365
2023-11-01,23:20:00,-0.417
2023-11-01,23:30:00,-0.458
2023-11-01,23:40:00,-0.51
2023-11-01,23:50:00,-0.554
2023-11-02,00:00:00,-0.595
2023-11-02,00:10:00,-0.633
2023-11-02,00:20:00,-0.674
2023-11-02,00:30:00,-0.715
2023-11-02,00:40:00,-0.744
2023-11-02,00:50:00,-0.782
2023-11-02,01:00:00,-0.811
2023-11-02,01:10:00,-0.857
2023-11-02,01:20:00,-0.883
2023-11-02,01:30:00,-0.912
2023-11-02,01:40:00,-0.939
2023-11-02,01:50:00,-0.967
2023-11-02,02:00:00,-0.995
2023-11-02,02:10:00,-1.017
2023-11-02,02:20:00,-1.038
2023-11-02,02:30:00,-1.059
2023-11-02,02:40:00,-1.078
2023-11-02,02:50:00,-1.095
2023-11-02,03:00:00,-1.11
2023-11-02,03:10:00,-1.124
2023-11-02,03:20:00,-1.142
2023-11-02,03:30:00,-1.145
2023-11-02,03:40:00,-1.158
2023-11-02,03:50:00,-1.156
2023-11-02,04:00:00,-1.119
2023-11-02,04:10:00,-1.083
2023-11-02,04:20:00,-1.031
2023-11-02,04:30:00,-0.95
2023-11-02,04:40:00,-0.837
2023-11-02,04:50:00,-0.693
2023-11-02,05:00:00,-0.553
2023-11-02,05:10:00,-0.415
2023-11-02,05:20:00,-0.268
2023-11-02,05:30:00,-0.141
2023-11-02,05:40:00,-0.043
2023-11-02,05:50:00,0.085
2023-11-02,06:00:00,0.163
2023-11-02,06:10:00,0.239
2023-11-02,06:20:00,0.366
2023-11-02,06:30:00,0.448
2023-11-02,06:40:00,0.557
2023-11-02,06:50:00,0.623
2023-11-02,07:00:00,0.687
2023-11-02,07:10:00,0.783
2023-11-02,07:20:00,0.868
2023-11-02,07:30:00,0.951
2023-11-02,07:40:00,0.984
2023-11-02,07:50:00,1.034
2023-11-02,08:00:00,1.09
2023-11-02,08:10:00,1.146
2023-11-02,08:20:00,1.241
2023-11-02,08:30:00,1.288
2023-11-02,08:40:00,1.324
2023-11-02,08:50:00,1.362
2023-11-02,09:00:00,1.345
2023-11-02,09:10:00,1.36
2023-11-02,09:20:00,1.409
2023-11-02,09:30:00,1.435
2023-11-02,09:40:00,1.412
2023-11-02,09:50:00,1.451
2023-11-02,10:00:00,1.42
2023-11-02,10:10:00,1.425
2023-11-02,10:20:00,1.455
2023-11-02,10:30:00,1.423
2023-11-02,10:40:00,1.414
2023-11-02,10:50:00,1.382
2023-11-02,11:00:00,1.314
2023-11-02,11:10:00,1.241
2023-11-02,11:20:00,1.221
2023-11-02,11:30:00,1.207
2023-11-02,11:40:00,1.219
2023-11-02,11:50:00,1.213
2023-11-02,12:00:00,1.126
2023-11-02,12:10:00,1.048
2023-11-02,12:20:00,1.008
2023-11-02,12:30:00,0.978
2023-11-02,12:40:00,0.944
2023-11-02,12:50:00,0.934
2023-11-02,13:00:00,0.88
2023-11-02,13:10:00,0.854
2023-11-02,13:20:00,0.789
2023-11-02,13:30:00,0.763
2023-11-02,13:40:00,0.762
2023-11-02,13:50:00,0.764
2023-11-02,14:00:00,0.742
2023-11-02,14:10:00,0.748
2023-11-02,14:20:00,0.73
2023-11-02,14:30:00,0.689
2023-11-02,14:40:00,0.664
2023-11-02,14:50:00,0.607
2023-11-02,15:00:00,0.595
2023-11-02,15:10:00,0.585
2023-11-02,15:20:00,0.613
2023-11-02,15:30:00,5.634
2023-11-02,15:40:00,0.618
2023-11-02,15:50:00,0.625
2023-11-02,16:00:00,0.649
2023-11-02,16:10:00,0.715
2023-11-02,16:20:00,0.688
2023-11-02,16:30:00,0.705
2023-11-02,16:40:00,0.736
2023-11-02,16:50:00,0.763
2023-11-02,17:00:00,0.759
2023-11-02,17:10:00,0.791
2023-11-02,17:20:00,0.811
2023-11-02,17:30:00,0.83
2023-11-02,17:40:00,0.88
2023-11-02,17:50:00,0.9
2023-11-02,18:00:00,0.903
2023-11-02,18:10:00,0.948
2023-11-02,18:20:00,0.995
2023-11-02,18:30:00,1.017
2023-11-02,18:40:00,0.995
2023-11-02,18:50:00,0.971
2023-11-02,19:00:00,0.969
2023-11-02,19:10:00,0.937
2023-11-02,19:20:00,0.9
2023-11-02,19:30:00,0.878
2023-11-02,19:40:00,0.876
2023-11-02,19:50:00,0.85
2023-11-02,20:00:00,0.833
2023-11-02,20:10:00,0.823
2023-11-02,20:20:00,0.787
2023-11-02,20:30:00,0.744
2023-11-02,20:40:00,0.696
2023-11-02,20:50:00,0.621
2023-11-02,21:00:00,0.546
2023-11-02,21:10:00,0.47
2023-11-02,21:20:00,0.396
2023-11-02,21:30:00,0.341
2023-11-02,21:40:00,0.284
2023-11-02,21:50:00,0.226
2023-11-02,22:00:00,0.158
2023-11-02,22:10:00,0.094
2023-11-02,22:20:00,0.012
2023-11-02,22:30:00,-0.068
2023-11-02,22:40:00,-0.128
2023-11-02,22:50:00,-0.2
2023-11-02,23:00:00,-0.266
2023-11-02,23:10:00,-0.338
2023-11-02,23:20:00,-0.387
2023-11-02,23:30:00,-0.451
2023-11-02,23:40:00,-0.5
2023-11-02,23:50:00,-0.538
2023-11-03,00:00:00,-0.581
2023-11-03,00:10:00,-0.62
2023-11-03,00:20:00,-0.66
2023-11-03,00:30:00,-0.694
2023-11-03,00:40:00,-0.73
2023-11-03,00:50:00,-0.774
2023-11-03,01:00:00,-0.805
2023-11-03,01:10:00,-0.839
2023-11-03,01:20:00,-0.873
2023-11-03,01:30:00,-0.902
2023-11-03,01:40:00,-0.934
2023-11-03,01:50:00,-0.961
2023-11-03,02:00:00,-0.98
2023-11-03,02:10:00,-1.004
2023-11-03,02:20:00,-1.03
2023-11-03,02:30:00,-1.05
2023-11-03,02:40:00,-1.069
2023-11-03,02:50:00,-1.091
2023-11-03,03:00:00,-1.105
2023-11-03,03:10:00,-1.125
2023-11-03,03:20:00,-1.138
2023-11-03,03:30:00,-1.151
2023-11-03,03:40:00,-1.163
2023-11-03,03:50:00,-1.171
2023-11-03,04:00:00,-1.175
2023-11-03,04:10:00,-1.181
2023-11-03,04:20:00,-1.157
2023-11-03,04:30:00,-1.134
2023-11-03,04:40:00,-1.091
2023-11-03,04:50:00,-1.027
2023-11-03,05:00:00,-0.965
2023-11-03,05:10:00,-0.887
2023-11-03,05:20:00,-0.781
2023-11-03,05:30:00,-0.661
2023-11-03,05:40:00,-0.573
2023-11-03,05:50:00,-0.447
2023-11-03,06:00:00,-0.312
2023-11-03,06:10:00,-0.205
2023-11-03,06:20:00,-0.114
2023-11-03,06:30:00,-0.02
2023-11-03,06:40:00,0.098
2023-11-03,06:50:00,0.185
2023-11-03,07:00:00,0.258
2023-11-03,07:10:00,0.322
2023-11-03,07:20:00,0.401
2023-11-03,07:30:00,0.456
2023-11-03,07:40:00,0.525
2023-11-03,07:50:00,0.609
2023-11-03,08:00:00,0.695
2023-11-03,08:10:00,0.765
2023-11-03,08:20:00,0.826
2023-11-03,08:30:00,0.895
2023-11-03,08:40:00,0.949
2023-11-03,08:50:00,1.003
2023-11-03,09:00:00,1.042
2023-11-03,09:10:00,1.094
2023-11-03,09:20:00,1.139
2023-11-03,09:30:00,1.168
2023-11-03,09:40:00,1.184
2023-11-03,09:50:00,1.192
2023-11-03,10:00:00,1.223
2023-11-03,10:10:00,1.229
2023-11-03,10:20:00,1.96
2023-11-03,10:30:00,1.307
2023-11-03,10:40:00,1.317
2023-11-03,10:50:00,1.319
2023-11-03,11:00:00,1.309
2023-11-03,11:10:00,1.304
2023-11-03,11:20:00,1.277
2023-11-03,11:30:00,1.261
2023-11-03,11:40:00,1.251
2023-11-03,11:50:00,1.216
2023-11-03,12:00:00,1.249
2023-11-03,12:10:00,1.203
2023-11-03,12:20:00,1.18
2023-11-03,12:30:00,1.159
2023-11-03,12:40:00,1.126
2023-11-03,12:50:00,1.071
2023-11-03,13:00:00,1.009
2023-11-03,13:10:00,1.01
2023-11-03,13:20:00,0.997
2023-11-03,13:30:00,0.957
2023-11-03,13:40:00,0.926
2023-11-03,13:50:00,0.885
2023-11-03,14:00:00,0.879
2023-11-03,14:10:00,0.869
2023-11-03,14:20:00,0.825
2023-11-03,14:30:00,0.809
2023-11-03,14:40:00,0.777
2023-11-03,14:50:00,0.737
2023-11-03,15:00:00,0.7
2023-11-03,15:10:00,0.701
2023-11-03,15:20:00,0.702
2023-11-03,15:30:00,0.685
2023-11-03,15:40:00,0.704
2023-11-03,15:50:00,0.711
2023-11-03,16:00:00,0.717
2023-11-03,16:10:00,0.703
2023-11-03,16:20:00,0.718
2023-11-03,16:30:00,0.739
2023-11-03,16:40:00,0.734
2023-11-03,16:50:00,0.734
2023-11-03,17:00:00,0.728
2023-11-03,17:10:00,0.75
2023-11-03,17:20:00,0.772
2023-11-03,17:30:00,0.768
2023-11-03,17:40:00,0.804
2023-11-03,17:50:00,0.828
2023-11-03,18:00:00,0.839
2023-11-03,18:10:00,0.847
2023-11-03,18:20:00,0.859
2023-11-03,18:30:00,0.867
2023-11-03,18:40:00,0.861
2023-11-03,18:50:00,0.879
2023-11-03,19:00:00,0.874
2023-11-03,19:10:00,0.884
2023-11-03,19:20:00,0.867
2023-11-03,19:30:00,0.847
2023-11-03,19:40:00,0.848
2023-11-03,19:50:00,0.845
2023-11-03,20:00:00,0.824
2023-11-03,20:10:00,0.814
2023-11-03,20:20:00,0.812
2023-11-03,20:30:00,0.777
2023-11-03,20:40:00,0.729
2023-11-03,20:50:00,0.675
2023-11-03,21:00:00,0.639
2023-11-03,21:10:00,0.6
2023-11-03,21:20:00,0.546
2023-11-03,21:30:00,0.493
2023-11-03,21:40:00,0.435
2023-11-03,21:50:00,0.401
2023-11-03,22:00:00,0.342
2023-11-03,22:10:00,0.275
2023-11-03,22:20:00,0.199
2023-11-03,22:30:00,0.132
2023-11-03,22:40:00,0.074
2023-11-03,22:50:00,0.05
2023-11-03,23:00:00,-0.016
2023-11-03,23:10:00,-0.076
2023-11-03,23:20:00,-0.147
2023-11-03,23:30:00,-0.223
2023-11-03,23:40:00,-0.286
2023-11-03,23:50:00,-0.339
2023-11-04,00:00:00,-0.388
2023-11-04,00:10:00,-0.427
2023-11-04,00:20:00,-0.478
2023-11-04,00:30:00,-0.536
2023-11-04,00:40:00,-0.579
2023-11-04,00:50:00,-0.609
2023-11-04,01:00:00,-0.645
2023-11-04,01:10:00,-0.686
2023-11-04,01:20:00,-0.729
2023-11-04,01:30:00,-0.759
2023-11-04,01:40:00,-0.79
2023-11-04,01:50:00,-0.824
2023-11-04,02:00:00,-0.859
2023-11-04,02:10:00,-0.893
2023-11-04,02:20:00,-0.915
2023-11-04,02:30:00,-0.955
2023-11-04,02:40:00,-0.99
2023-11-04,02:50:00,-1.006
2023-11-04,03:00:00,-1.011
2023-11-04,03:10:00,-1.045
2023-11-04,03:20:00,-1.049
2023-11-04,03:30:00,-1.069
2023-11-04,03:40:00,-1.079
2023-11-04,03:50:00,-1.09
2023-11-04,04:00:00,-1.095
2023-11-04,04:10:00,-1.099
2023-11-04,04:20:00,-1.103
2023-11-04,04:30:00,-1.096
2023-11-04,04:40:00,-1.072
2023-11-04,04:50:00,-1.034
2023-11-04,05:00:00,-0.984
2023-11-04,05:10:00,-0.939
2023-11-04,05:20:00,-0.873
2023-11-04,05:30:00,-0.809
2023-11-04,05:40:00,-0.721
2023-11-04,05:50:00,-0.645
2023-11-04,06:00:00,-0.565
2023-11-04,06:10:00,-0.474
2023-11-04,06:20:00,-0.35
2023-11-04,06:30:00,-0.227
2023-11-04,06:40:00,-0.137
2023-11-04,06:50:00,-0.035
2023-11-04,07:00:00,0.046
2023-11-04,07:10:00,0.141
2023-11-04,07:20:00,0.211
2023-11-04,07:30:00,0.286
2023-11-04,07:40:00,0.363
2023-11-04,07:50:00,0.451
2023-11-04,08:00:00,0.517
2023-11-04,08:10:00,0.576
2023-11-04,08:20:00,0.66
2023-11-04,08:30:00,0.734
2023-11-04,08:40:00,0.792
2023-11-04,08:50:00,0.866
2023-11-04,09:00:00,0.934
2023-11-04,09:10:00,0.996
2023-11-04,09:20:00,1.045
2023-11-04,09:30:00,1.116
2023-11-04,09:40:00,1.162
2023-11-04,09:50:00,1.186
2023-11-04,10:00:00,1.23
2023-11-04,10:10:00,1.243
2023-11-04,10:20:00,1.253
2023-11-04,10:30:00,1.271
2023-11-04,10:40:00,1.315
2023-11-04,10:50:00,1.348
2023-11-04,11:00:00,1.343
2023-11-04,11:10:00,1.328
2023-11-04,11:20:00,1.341
2023-11-04,11:30:00,1.365
2023-11-04,11:40:00,1.386
2023-11-04,11:50:00,1.365
2023-11-04,12:00:00,1.362
2023-11-04,12:10:00,1.343
2023-11-04,12:20:00,1.304
2023-11-04,12:30:00,1.301
2023-11-04,12:40:00,5.325
2023-11-04,12:50:00,1.27
2023-11-04,13:00:00,1.247
2023-11-04,13:10:00,1.195
2023-11-04,13:20:00,1.203
2023-11-04,13:30:00,1.191
2023-11-04,13:40:00,1.179
2023-11-04,13:50:00,1.128
2023-11-04,14:00:00,1.084
2023-11-04,14:10:00,1.066
2023-11-04,14:20:00,1.053
2023-11-04,14:30:00,1.025
2023-11-04,14:40:00,1.005
2023-11-04,14:50:00,0.998
2023-11-04,15:00:00,0.973
2023-11-04,15:10:00,0.978
2023-11-04,15:20:00,0.964
2023-11-04,15:30:00,0.953
2023-11-04,15:40:00,0.949
2023-11-04,15:50:00,0.918
2023-11-04,16:00:00,0.914
2023-11-04,16:10:00,0.929
2023-11-04,16:20:00,0.909
2023-11-04,16:30:00,0.915
2023-11-04,16:40:00,0.927
2023-11-04,16:50:00,0.907
2023-11-04,17:00:00,0.929
2023-11-04,17:10:00,0.929
2023-11-04,17:20:00,0.927
2023-11-04,17:30:00,0.893
2023-11-04,17:40:00,0.894
2023-11-04,17:50:00,0.922
2023-11-04,18:00:00,0.95
2023-11-04,18:10:00,0.974
2023-11-04,18:20:00,0.989
2023-11-04,18:30:00,0.939
2023-11-04,18:40:00,0.906
2023-11-04,18:50:00,0.899
2023-11-04,19:00:00,0.901
2023-11-04,19:10:00,0.886
2023-11-04,19:20:00,0.879
2023-11-04,19:30:00,0.869
2023-11-04,19:40:00,0.892
2023-11-04,19:50:00,0.885
2023-11-04,20:00:00,0.869
2023-11-04,20:10:00,0.852
2023-11-04,20:20:00,0.858
2023-11-04,20:30:00,0.839
2023-11-04,20:40:00,0.791
2023-11-04,20:50:00,0.757
2023-11-04,21:00:00,0.768
2023-11-04,21:10:00,0.746
2023-11-04,21:20:00,0.685
2023-11-04,21:30:00,0.648
2023-11-04,21:40:00,0.596
2023-11-04,21:50:00,0.562
2023-11-04,22:00:00,0.533
2023-11-04,22:10:00,0.477
2023-11-04,22:20:00,0.444
2023-11-04,22:30:00,0.393
2023-11-04,22:40:00,0.341
2023-11-04,22:50:00,0.286
2023-11-04,23:00:00,0.228
2023-11-04,23:10:00,0.166
2023-11-04,23:20:00,0.109
2023-11-04,23:30:00,0.064
2023-11-04,23:40:00,0.01
2023-11-04,23:50:00,-0.047
2023-11-05,00:00:00,-0.124
2023-11-05,00:10:00,-0.179
2023-11-05,00:20:00,-0.238
2023-11-05,00:30:00,-0.28
2023-11-05,00:40:00,-0.312
2023-11-05,00:50:00,-0.354
2023-11-05,01:00:00,-0.396
2023-11-05,01:10:00,-0.433
2023-11-05,01:20:00,-0.463
2023-11-05,01:30:00,-0.498
2023-11-05,01:40:00,-0.537
2023-11-05,01:50:00,-0.58
2023-11-05,02:00:00,-0.619
2023-11-05,02:10:00,-0.649
2023-11-05,02:20:00,-0.677
2023-11-05,02:30:00,-0.709
2023-11-05,02:40:00,-0.737
2023-11-05,02:50:00,-0.761
2023-11-05,03:00:00,-0.791
2023-11-05,03:10:00,-0.823
2023-11-05,03:20:00,-0.85
2023-11-05,03:30:00,-0.867
2023-11-05,03:40:00,-0.883
2023-11-05,03:50:00,-0.899
2023-11-05,04:00:00,-0.911
2023-11-05,04:10:00,-0.924
2023-11-05,04:20:00,-0.94
2023-11-05,04:30:00,-0.947
2023-11-05,04:40:00,-0.939
2023-11-05,04:50:00,-0.928
2023-11-05,05:00:00,-0.917
2023-11-05,05:10:00,-0.913
2023-11-05,05:20:00,-0.881
2023-11-05,05:30:00,-0.881
2023-11-05,05:40:00,-0.833
2023-11-05,05:50:00,-0.788
2023-11-05,06:00:00,-0.733
2023-11-05,06:10:00,-0.675
2023-11-05,06:20:00,-0.619
2023-11-05,06:30:00,-0.565
2023-11-05,06:40:00,-0.526
2023-11-05,06:50:00,-0.466
2023-11-05,07:00:00,-0.41
2023-11-05,07:10:00,-0.326
2023-11-05,07:20:00,-0.231
2023-11-05,07:30:00,-0.118
2023-11-05,07:40:00,-0.048
2023-11-05,07:50:00,0.026
2023-11-05,08:00:00,0.09
2023-11-05,08:10:00,0.165
2023-11-05,08:20:00,0.265
2023-11-05,08:30:00,0.319
2023-11-05,08:40:00,0.367
2023-11-05,08:50:00,0.464
2023-11-05,09:00:00,0.523
2023-11-05,09:10:00,0.576
2023-11-05,09:20:00,0.629
2023-11-05,09:30:00,0.695
2023-11-05,09:40:00,0.778
2023-11-05,09:50:00,0.83
2023-11-05,10:00:00,0.875
2023-11-05,10:10:00,0.926
2023-11-05,10:20:00,0.978
2023-11-05,10:30:00,1.023
2023-11-05,10:40:00,1.076
2023-11-05,10:50:00,1.106
2023-11-05,11:00:00,1.134
2023-11-05,11:10:00,1.153
2023-11-05,11:20:00,1.207
2023-11-05,11:30:00,1.208
2023-11-05,11:40:00,1.244
2023-11-05,11:50:00,1.249
2023-11-05,12:00:00,1.249
2023-11-05,12:10:00,1.247
2023-11-05,12:20:00,1.255
2023-11-05,12:30:00,1.229
2023-11-05,12:40:00,1.237
2023-11-05,12:50:00,1.249
2023-11-05,13:00:00,1.228
2023-11-05,13:10:00,1.207
2023-11-05,13:20:00,1.228
2023-11-05,13:30:00,1.198
2023-11-05,13:40:00,1.21
2023-11-05,13:50:00,1.192
2023-11-05,14:00:00,1.138
2023-11-05,14:10:00,1.099
2023-11-05,14:20:00,1.075
2023-11-05,14:30:00,1.099
2023-11-05,14:40:00,1.084
2023-11-05,14:50:00,1.077
2023-11-05,15:00:00,1.065
2023-11-05,15:10:00,1.032
2023-11-05,15:20:00,1
2023-11-05,15:30:00,0.97
2023-11-05,15:40:00,0.961
2023-11-05,15:50:00,0.967
2023-11-05,16:00:00,0.915
2023-11-05,16:10:00,0.9
2023-11-05,16:20:00,0.88
2023-11-05,16:30:00,0.848
2023-11-05,16:40:00,0.844
2023-11-05,16:50:00,0.824
2023-11-05,17:00:00,0.797
2023-11-05,17:10:00,0.775
2023-11-05,17:20:00,0.763
2023-11-05,17:30:00,0.778
2023-11-05,17:40:00,0.756
2023-11-05,17:50:00,0.743
2023-11-05,18:00:00,0.736
2023-11-05,18:10:00,0.73
2023-11-05,18:20:00,0.729
2023-11-05,18:30:00,0.709
2023-11-05,18:40:00,0.702
2023-11-05,18:50:00,0.694
2023-11-05,19:00:00,0.695
2023-11-05,19:10:00,0.702
2023-11-05,19:20:00,0.71
2023-11-05,19:30:00,0.691
2023-11-05,19:40:00,0.693
2023-11-05,19:50:00,0.669
2023-11-05,20:00:00,0.649
2023-11-05,20:10:00,0.634
2023-11-05,20:20:00,0.588
2023-11-05,20:30:00,0.575
2023-11-05,20:40:00,0.554
2023-11-05,20:50:00,0.541
2023-11-05,21:00:00,0.544
2023-11-05,21:10:00,0.514
2023-11-05,21:20:00,0.487
2023-11-05,21:30:00,0.441
2023-11-05,21:40:00,0.404
2023-11-05,21:50:00,0.374
2023-11-05,22:00:00,0.361
2023-11-05,22:10:00,0.371
2023-11-05,22:20:00,0.332
2023-11-05,22:30:00,0.293
2023-11-05,22:40:00,0.234
2023-11-05,22:50:00,0.185
2023-11-05,23:00:00,0.165
2023-11-05,23:10:00,0.15
2023-11-05,23:20:00,0.104
2023-11-05,23:30:00,0.044
2023-11-05,23:40:00,-0.007
2023-11-05,23:50:00,-0.035
2023-11-06,00:00:00,-0.066
2023-11-06,00:10:00,-0.102
2023-11-06,00:20:00,-0.14
2023-11-06,00:30:00,-0.166
2023-11-06,00:40:00,-0.205
2023-11-06,00:50:00,-0.253
2023-11-06,01:00:00,-0.305
2023-11-06,01:10:00,-0.354
2023-11-06,01:20:00,-0.4
2023-11-06,01:30:00,-0.441
2023-11-06,01:40:00,-0.475
2023-11-06,01:50:00,-0.498
2023-11-06,02:00:00,-0.508
2023-11-06,02:10:00,-0.532
2023-11-06,02:20:00,-0.56
2023-11-06,02:30:00,-0.585
2023-11-06,02:40:00,-0.619
2023-11-06,02:50:00,-0.646
2023-11-06,03:00:00,-0.674
2023-11-06,03:10:00,-0.697
2023-11-06,03:20:00,-0.718
2023-11-06,03:30:00,-0.741
2023-11-06,03:40:00,-0.765
2023-11-06,03:50:00,-0.786
2023-11-06,04:00:00,-0.803
2023-11-06,04:10:00,-0.805
2023-11-06,04:20:00,-0.805
2023-11-06,04:30:00,-0.808
2023-11-06,04:40:00,-0.804
2023-11-06,04:50:00,-0.799
2023-11-06,05:00:00,-0.802
2023-11-06,05:10:00,-0.805
2023-11-06,05:20:00,-0.799
2023-11-06,05:30:00,-0.798
2023-11-06,05:40:00,-0.759
2023-11-06,05:50:00,-0.759
2023-11-06,06:00:00,-0.744
2023-11-06,06:10:00,-0.728
2023-11-06,06:20:00,-0.709
2023-11-06,06:30:00,-0.655
2023-11-06,06:40:00,-0.597
2023-11-06,06:50:00,-0.577
2023-11-06,07:00:00,-0.552
2023-11-06,07:10:00,-0.499
2023-11-06,07:20:00,-0.438
2023-11-06,07:30:00,-0.39
2023-11-06,07:40:00,-0.322
2023-11-06,07:50:00,-0.268
2023-11-06,08:00:00,-0.234
2023-11-06,08:10:00,-0.155
2023-11-06,08:20:00,-0.1
2023-11-06,08:30:00,-0.041
2023-11-06,08:40:00,0.021
2023-11-06,08:50:00,0.077
2023-11-06,09:00:00,0.143
2023-11-06,09:10:00,0.221
2023-11-06,09:20:00,0.289
2023-11-06,09:30:00,0.37
2023-11-06,09:40:00,0.416
2023-11-06,09:50:00,0.442
2023-11-06,10:00:00,0.486
2023-11-06,10:10:00,0.531
2023-11-06,10:20:00,0.595
2023-11-06,10:30:00,0.671
2023-11-06,10:40:00,0.702
2023-11-06,10:50:00,0.755
2023-11-06,11:00:00,0.821
2023-11-06,11:10:00,0.837
2023-11-06,11:20:00,0.876
2023-11-06,11:30:00,0.946
2023-11-06,11:40:00,0.98
2023-11-06,11:50:00,1.01
2023-11-06,12:00:00,1.017
2023-11-06,12:10:00,1.036
2023-11-06,12:20:00,1.046
2023-11-06,12:30:00,1.063
2023-11-06,12:40:00,1.079
2023-11-06,12:50:00,1.119
2023-11-06,13:00:00,1.145
2023-11-06,13:10:00,1.13
2023-11-06,13:20:00,1.147
2023-11-06,13:30:00,1.16
2023-11-06,13:40:00,1.147
2023-11-06,13:50:00,1.13
2023-11-06,14:00:00,1.154
2023-11-06,14:10:00,1.158
2023-11-06,14:20:00,1.159
2023-11-06,14:30:00,1.146
2023-11-06,14:40:00,1.153
2023-11-06,14:50:00,1.121
2023-11-06,15:00:00,1.085
2023-11-06,15:10:00,1.083
2023-11-06,15:20:00,1.091
2023-11-06,15:30:00,1.032
2023-11-06,15:40:00,0.997
2023-11-06,15:50:00,0.963
2023-11-06,16:00:00,0.955
2023-11-06,16:10:00,0.934
2023-11-06,16:20:00,0.937
2023-11-06,16:30:00,0.91
2023-11-06,16:40:00,0.881
2023-11-06,16:50:00,0.862
2023-11-06,17:00:00,0.825
2023-11-06,17:10:00,0.789
2023-11-06,17:20:00,0.77
2023-11-06,17:30:00,0.777
2023-11-06,17:40:00,0.73
2023-11-06,17:50:00,0.732
2023-11-06,18:00:00,0.695
2023-11-06,18:10:00,0.689
2023-11-06,18:20:00,0.681
2023-11-06,18:30:00,0.687
2023-11-06,18:40:00,0.671
2023-11-06,18:50:00,0.654
2023-11-06,19:00:00,0.625
2023-11-06,19:10:00,0.578
2023-11-06,19:20:00,0.544
2023-11-06,19:30:00,0.569
2023-11-06,19:40:00,0.573
2023-11-06,19:50:00,0.546
2023-11-06,20:00:00,0.552
2023-11-06,20:10:00,0.525
2023-11-06,20:20:00,0.523
2023-11-06,20:30:00,0.573
2023-11-06,20:40:00,0.576
2023-11-06,20:50:00,0.478
2023-11-06,21:00:00,0.398
2023-11-06,21:10:00,0.322
2023-11-06,21:20:00,0.276
2023-11-06,21:30:00,0.364
2023-11-06,21:40:00,0.432
2023-11-06,21:50:00,0.409
2023-11-06,22:00:00,0.383
2023-11-06,22:10:00,0.34
2023-11-06,22:20:00,0.32
2023-11-06,22:30:00,0.28
2023-11-06,22:40:00,0.246
2023-11-06,22:50:00,0.24
2023-11-06,23:00:00,0.209
2023-11-06,23:10:00,0.185
2023-11-06,23:20:00,0.145
2023-11-06,23:30:00,0.123
2023-11-06,23:40:00,0.088
2023-11-06,23:50:00,0.046
2023-11-07,00:00:00,0.027
2023-11-07,00:10:00,-0.002
2023-11-07,00:20:00,-0.012
2023-11-07,00:30:00,-0.011
2023-11-07,00:40:00,-0.034
2023-11-07,00:50:00,-0.036
2023-11-07,01:00:00,-0.042
2023-11-07,01:10:00,-0.065
2023-11-07,01:20:00,-0.118
2023-11-07,01:30:00,-0.164
2023-11-07,01:40:00,-0.205
2023-11-07,01:50:00,-0.216
2023-11-07,02:00:00,-0.225
2023-11-07,02:10:00,-0.238
2023-11-07,02:20:00,-0.241
2023-11-07,02:30:00,-0.278
2023-11-07,02:40:00,-0.322
2023-11-07,02:50:00,-0.396
2023-11-07,03:00:00,-0.442
2023-11-07,03:10:00,-0.491
2023-11-07,03:20:00,-0.523
2023-11-07,03:30:00,-0.552
2023-11-07,03:40:00,-0.534
2023-11-07,03:50:00,-0.545
2023-11-07,04:00:00,-0.523
2023-11-07,04:10:00,-0.547
2023-11-07,04:20:00,-0.577
2023-11-07,04:30:00,-0.602
2023-11-07,04:40:00,-0.634
2023-11-07,04:50:00,-0.642
2023-11-07,05:00:00,-0.645
2023-11-07,05:10:00,-0.635
2023-11-07,05:20:00,-0.633
2023-11-07,05:30:00,-0.632
2023-11-07,05:40:00,-0.636
2023-11-07,05:50:00,-0.649
2023-11-07,06:00:00,-0.643
2023-11-07,06:10:00,-0.615
2023-11-07,06:20:00,-0.594
2023-11-07,06:30:00,-0.551
2023-11-07,06:40:00,-0.544
2023-11-07,06:50:00,-0.524
2023-11-07,07:00:00,-0.498
2023-11-07,07:10:00,-0.471
2023-11-07,07:20:00,-0.43
2023-11-07,07:30:00,-0.406
2023-11-07,07:40:00,-0.384
2023-11-07,07:50:00,-0.37
2023-11-07,08:00:00,-0.367